LVTKL SAZS-SAZN

Flight info

Callsign LVTKL
Flight time 0h 48m
Altitude 15000
Route LIMAY1C LIMAY DCT ILTOS ILTOS2Q
Aircraft LJ35/M-SGHRWXY/SB1

Departure

Time 2026-04-25 21:17
Airport Teniente Luis Candelaria International Airport (SAZS)

Arrival

Time 2026-04-25 22:05
Airport Presidente Perón International Airport (SAZN)
Time Latitude Longitude Altitude Speed Heading
2026-04-25 20:57 -41.14723 -71.16330 2748 ft 0 kts 300°
2026-04-25 21:04 -41.14723 -71.16329 2748 ft 0 kts 300°
2026-04-25 21:06 -41.14724 -71.16329 2748 ft 0 kts 300°
2026-04-25 21:10 -41.14723 -71.16329 2748 ft 1 kts 299°
2026-04-25 21:10 -41.14713 -71.16330 2748 ft 1 kts 47°
2026-04-25 21:10 -41.14714 -71.16320 2748 ft 2 kts 129°
2026-04-25 21:11 -41.14733 -71.16302 2748 ft 6 kts 147°
2026-04-25 21:11 -41.14774 -71.16268 2749 ft 9 kts 127°
2026-04-25 21:11 -41.14801 -71.16215 2749 ft 12 kts 118°
2026-04-25 21:11 -41.14841 -71.16104 2750 ft 14 kts 115°
2026-04-25 21:12 -41.14875 -71.16007 2751 ft 13 kts 116°
2026-04-25 21:12 -41.14921 -71.15878 2752 ft 17 kts 115°
2026-04-25 21:12 -41.14963 -71.15757 2753 ft 9 kts 115°
2026-04-25 21:12 -41.14984 -71.15698 2755 ft 10 kts 114°
2026-04-25 21:13 -41.15032 -71.15556 2755 ft 15 kts 115°
2026-04-25 21:13 -41.15076 -71.15429 2756 ft 16 kts 115°
2026-04-25 21:13 -41.15128 -71.15279 2757 ft 20 kts 113°
2026-04-25 21:13 -41.15185 -71.15117 2758 ft 18 kts 115°
2026-04-25 21:14 -41.15244 -71.14948 2760 ft 22 kts 115°
2026-04-25 21:14 -41.15309 -71.14762 2762 ft 17 kts 115°
2026-04-25 21:14 -41.15359 -71.14621 2763 ft 11 kts 114°
2026-04-25 21:14 -41.15393 -71.14522 2764 ft 14 kts 115°
2026-04-25 21:15 -41.15424 -71.14473 2764 ft 3 kts 163°
2026-04-25 21:15 -41.15435 -71.14472 2764 ft 0 kts 187°
2026-04-25 21:15 -41.15444 -71.14474 2764 ft 4 kts 192°
2026-04-25 21:15 -41.15494 -71.14500 2763 ft 10 kts 207°
2026-04-25 21:16 -41.15540 -71.14555 2762 ft 9 kts 276°
2026-04-25 21:16 -41.15522 -71.14612 2762 ft 23 kts 294°
2026-04-25 21:16 -41.15338 -71.15140 2760 ft 101 kts 295°
2026-04-25 21:16 -41.14956 -71.16160 3105 ft 142 kts 296°
2026-04-25 21:17 -41.14448 -71.17445 3576 ft 171 kts 297°
2026-04-25 21:17 -41.13943 -71.19004 4222 ft 196 kts 289°
2026-04-25 21:17 -41.13462 -71.20746 4983 ft 204 kts 290°
2026-04-25 21:17 -41.12878 -71.22488 5691 ft 209 kts 292°
2026-04-25 21:18 -41.12266 -71.24231 6396 ft 212 kts 290°
2026-04-25 21:18 -41.11651 -71.26023 7063 ft 214 kts 290°
2026-04-25 21:18 -41.11039 -71.27826 7738 ft 215 kts 288°
2026-04-25 21:18 -41.10426 -71.29634 8426 ft 214 kts 287°
2026-04-25 21:19 -41.09824 -71.31404 9113 ft 207 kts 286°
2026-04-25 21:19 -41.09240 -71.33111 9819 ft 200 kts 285°
2026-04-25 21:19 -41.08676 -71.34767 10454 ft 194 kts 284°
2026-04-25 21:19 -41.07944 -71.36270 11077 ft 205 kts 302°
2026-04-25 21:20 -41.06653 -71.37244 11710 ft 228 kts 327°
2026-04-25 21:20 -41.05580 -71.37460 12140 ft 240 kts 341°
2026-04-25 21:20 -41.03321 -71.37323 13018 ft 255 kts
2026-04-25 21:20 -41.01645 -71.36316 13487 ft 279 kts 24°
2026-04-25 21:21 -41.00112 -71.34557 13698 ft 304 kts 45°
2026-04-25 21:21 -40.98986 -71.32102 13908 ft 320 kts 69°
2026-04-25 21:21 -40.98470 -71.29202 14102 ft 328 kts 90°
2026-04-25 21:21 -40.98623 -71.26209 14313 ft 329 kts 105°
2026-04-25 21:22 -40.98608 -71.23117 14547 ft 345 kts 87°
2026-04-25 21:22 -40.98266 -71.19956 14765 ft 352 kts 84°
2026-04-25 21:22 -40.97671 -71.16801 14989 ft 361 kts 72°
2026-04-25 21:22 -40.96545 -71.13790 15022 ft 371 kts 57°
2026-04-25 21:23 -40.95090 -71.10905 15013 ft 381 kts 54°
2026-04-25 21:23 -40.93671 -71.07908 15008 ft 386 kts 60°
2026-04-25 21:23 -40.92452 -71.04790 15006 ft 377 kts 64°
2026-04-25 21:23 -40.91279 -71.01720 15006 ft 370 kts 62°
2026-04-25 21:24 -40.90028 -70.98759 14989 ft 366 kts 60°
2026-04-25 21:24 -40.88766 -70.95854 14984 ft 361 kts 60°
2026-04-25 21:24 -40.87564 -70.92960 14973 ft 357 kts 62°
2026-04-25 21:24 -40.86391 -70.90083 14967 ft 354 kts 62°
2026-04-25 21:25 -40.85209 -70.87246 14971 ft 352 kts 61°
2026-04-25 21:25 -40.84022 -70.84433 14967 ft 348 kts 61°
2026-04-25 21:25 -40.82853 -70.81640 14966 ft 346 kts 62°
2026-04-25 21:25 -40.81697 -70.78867 14968 ft 344 kts 62°
2026-04-25 21:26 -40.80542 -70.76107 14966 ft 342 kts 61°
2026-04-25 21:26 -40.79392 -70.73369 14964 ft 341 kts 61°
2026-04-25 21:26 -40.78245 -70.70635 14964 ft 339 kts 61°
2026-04-25 21:26 -40.77109 -70.67926 14966 ft 337 kts 61°
2026-04-25 21:27 -40.75972 -70.65222 14972 ft 337 kts 61°
2026-04-25 21:27 -40.74848 -70.62551 14972 ft 337 kts 61°
2026-04-25 21:27 -40.73589 -70.59937 14967 ft 337 kts 55°
2026-04-25 21:27 -40.72298 -70.57362 14966 ft 336 kts 56°
2026-04-25 21:28 -40.71023 -70.54771 14966 ft 336 kts 56°
2026-04-25 21:28 -40.69748 -70.52195 14973 ft 335 kts 56°
2026-04-25 21:28 -40.68464 -70.49627 14973 ft 336 kts 56°
2026-04-25 21:28 -40.67181 -70.47060 14971 ft 335 kts 56°
2026-04-25 21:29 -40.65919 -70.44529 14972 ft 334 kts 55°
2026-04-25 21:29 -40.64642 -70.41968 14976 ft 334 kts 55°
2026-04-25 21:29 -40.63365 -70.39413 14973 ft 335 kts 55°
2026-04-25 21:29 -40.62085 -70.36854 14975 ft 334 kts 55°
2026-04-25 21:30 -40.60804 -70.34299 14981 ft 334 kts 55°
2026-04-25 21:30 -40.59524 -70.31745 14983 ft 334 kts 55°
2026-04-25 21:30 -40.58241 -70.29185 14979 ft 335 kts 55°
2026-04-25 21:30 -40.57391 -70.27492 14980 ft 335 kts 55°
2026-04-25 21:31 -40.55667 -70.24059 14982 ft 335 kts 55°
2026-04-25 21:31 -40.54398 -70.21534 14981 ft 334 kts 55°
2026-04-25 21:31 -40.53099 -70.18952 14984 ft 334 kts 55°
2026-04-25 21:31 -40.51816 -70.16404 14981 ft 334 kts 55°
2026-04-25 21:32 -40.50543 -70.13881 14983 ft 335 kts 55°
2026-04-25 21:32 -40.49259 -70.11331 14985 ft 335 kts 55°
2026-04-25 21:32 -40.47968 -70.08775 14979 ft 335 kts 54°
2026-04-25 21:32 -40.46680 -70.06227 14995 ft 335 kts 55°
2026-04-25 21:33 -40.45386 -70.03669 14989 ft 336 kts 54°
2026-04-25 21:33 -40.44090 -70.01106 14992 ft 337 kts 55°
2026-04-25 21:33 -40.42791 -69.98541 14991 ft 337 kts 55°
2026-04-25 21:33 -40.41488 -69.95969 14990 ft 338 kts 55°
2026-04-25 21:34 -40.40185 -69.93403 14985 ft 337 kts 55°
2026-04-25 21:34 -40.38887 -69.90845 14994 ft 337 kts 55°
2026-04-25 21:34 -40.37580 -69.88272 14994 ft 338 kts 54°
2026-04-25 21:34 -40.36276 -69.85708 14991 ft 337 kts 55°
2026-04-25 21:35 -40.34972 -69.83147 14988 ft 336 kts 55°
2026-04-25 21:35 -40.33675 -69.80601 14991 ft 336 kts 54°
2026-04-25 21:35 -40.32393 -69.78085 14993 ft 336 kts 54°
2026-04-25 21:35 -40.31097 -69.75545 14994 ft 334 kts 54°
2026-04-25 21:36 -40.29800 -69.73006 14995 ft 335 kts 54°
2026-04-25 21:36 -40.28506 -69.70474 14990 ft 334 kts 54°
2026-04-25 21:36 -40.27212 -69.67941 14994 ft 334 kts 54°
2026-04-25 21:36 -40.25920 -69.65414 14999 ft 333 kts 54°
2026-04-25 21:37 -40.24627 -69.62891 14999 ft 333 kts 54°
2026-04-25 21:37 -40.23770 -69.61226 14996 ft 333 kts 54°
2026-04-25 21:37 -40.22059 -69.57889 14989 ft 333 kts 54°
2026-04-25 21:37 -40.20768 -69.55372 14993 ft 332 kts 54°
2026-04-25 21:38 -40.19478 -69.52862 14990 ft 332 kts 54°
2026-04-25 21:38 -40.18190 -69.50357 14987 ft 332 kts 54°
2026-04-25 21:38 -40.16887 -69.47829 14990 ft 331 kts 54°
2026-04-25 21:38 -40.15623 -69.45369 14986 ft 330 kts 54°
2026-04-25 21:39 -40.14341 -69.42879 14984 ft 330 kts 53°
2026-04-25 21:39 -40.13053 -69.40389 14986 ft 329 kts 54°
2026-04-25 21:39 -40.11775 -69.37913 14991 ft 329 kts 54°
2026-04-25 21:39 -40.10490 -69.35426 14988 ft 329 kts 54°
2026-04-25 21:40 -40.09203 -69.32935 14986 ft 329 kts 54°
2026-04-25 21:40 -40.07919 -69.30455 14986 ft 329 kts 54°
2026-04-25 21:40 -40.06656 -69.28018 14989 ft 329 kts 54°
2026-04-25 21:40 -40.05369 -69.25536 14987 ft 328 kts 54°
2026-04-25 21:41 -40.04089 -69.23068 14985 ft 328 kts 54°
2026-04-25 21:41 -40.02811 -69.20607 14985 ft 328 kts 54°
2026-04-25 21:41 -40.01528 -69.18139 14990 ft 327 kts 53°
2026-04-25 21:41 -40.00255 -69.15690 14987 ft 326 kts 53°
2026-04-25 21:42 -39.98977 -69.13234 14988 ft 327 kts 53°
2026-04-25 21:42 -39.97697 -69.10778 14987 ft 327 kts 53°
2026-04-25 21:42 -39.96421 -69.08329 14985 ft 327 kts 53°
2026-04-25 21:42 -39.95140 -69.05873 14985 ft 326 kts 53°
2026-04-25 21:43 -39.93864 -69.03429 14982 ft 326 kts 53°
2026-04-25 21:43 -39.92606 -69.01020 14981 ft 326 kts 53°
2026-04-25 21:43 -39.91330 -68.98580 14984 ft 325 kts 53°
2026-04-25 21:43 -39.90056 -68.96147 14981 ft 325 kts 53°
2026-04-25 21:44 -39.88780 -68.93710 14983 ft 325 kts 53°
2026-04-25 21:44 -39.87506 -68.91279 14986 ft 325 kts 53°
2026-04-25 21:44 -39.84961 -68.86428 14986 ft 324 kts 53°
2026-04-25 21:45 -39.83686 -68.84001 14985 ft 324 kts 53°
2026-04-25 21:45 -39.83255 -68.83181 14984 ft 324 kts 53°
2026-04-25 21:45 -39.81140 -68.79161 14982 ft 324 kts 53°
2026-04-25 21:45 -39.79865 -68.76738 14982 ft 324 kts 53°
2026-04-25 21:46 -39.78593 -68.74324 14982 ft 324 kts 53°
2026-04-25 21:46 -39.77336 -68.71939 14981 ft 323 kts 52°
2026-04-25 21:46 -39.76064 -68.69528 14982 ft 323 kts 52°
2026-04-25 21:46 -39.74790 -68.67118 14981 ft 323 kts 52°
2026-04-25 21:47 -39.73519 -68.64713 14981 ft 323 kts 52°
2026-04-25 21:47 -39.72247 -68.62306 14983 ft 323 kts 52°
2026-04-25 21:47 -39.70972 -68.59898 14980 ft 323 kts 52°
2026-04-25 21:47 -39.69698 -68.57492 14977 ft 324 kts 52°
2026-04-25 21:48 -39.68419 -68.55081 14979 ft 323 kts 52°
2026-04-25 21:48 -39.67146 -68.52681 14978 ft 323 kts 52°
2026-04-25 21:48 -39.65875 -68.50285 14981 ft 319 kts 52°
2026-04-25 21:48 -39.64631 -68.47942 14977 ft 311 kts 52°
2026-04-25 21:49 -39.63413 -68.45651 14977 ft 306 kts 52°
2026-04-25 21:49 -39.62210 -68.43392 14973 ft 301 kts 52°
2026-04-25 21:49 -39.61042 -68.41197 14971 ft 297 kts 52°
2026-04-25 21:49 -39.59870 -68.38997 14975 ft 294 kts 52°
2026-04-25 21:50 -39.58712 -68.36824 14966 ft 292 kts 52°
2026-04-25 21:50 -39.57562 -68.34669 14970 ft 289 kts 52°
2026-04-25 21:50 -39.56419 -68.32530 14970 ft 287 kts 52°
2026-04-25 21:50 -39.55667 -68.31122 14969 ft 286 kts 52°
2026-04-25 21:51 -39.54155 -68.28293 14966 ft 285 kts 51°
2026-04-25 21:51 -39.53029 -68.26190 14956 ft 284 kts 52°
2026-04-25 21:51 -39.51853 -68.24088 14666 ft 294 kts 50°
2026-04-25 21:51 -39.50690 -68.21898 14339 ft 302 kts 54°
2026-04-25 21:52 -39.49527 -68.19616 14030 ft 305 kts 53°
2026-04-25 21:52 -39.48312 -68.17346 13704 ft 308 kts 51°
2026-04-25 21:52 -39.47072 -68.15076 13349 ft 310 kts 52°
2026-04-25 21:52 -39.45837 -68.12782 12984 ft 311 kts 52°
2026-04-25 21:53 -39.44604 -68.10475 12632 ft 310 kts 52°
2026-04-25 21:53 -39.43776 -68.08932 12394 ft 307 kts 52°
2026-04-25 21:53 -39.42441 -68.06813 12022 ft 299 kts 37°
2026-04-25 21:53 -39.40756 -68.05416 11666 ft 284 kts 15°
2026-04-25 21:54 -39.38911 -68.04842 11297 ft 266 kts 358°
2026-04-25 21:54 -39.37092 -68.04590 10945 ft 261 kts 359°
2026-04-25 21:54 -39.35316 -68.04072 10599 ft 263 kts
2026-04-25 21:54 -39.33583 -68.03311 10248 ft 261 kts 11°
2026-04-25 21:55 -39.31872 -68.02579 9905 ft 257 kts
2026-04-25 21:55 -39.30169 -68.01923 9534 ft 254 kts
2026-04-25 21:55 -39.28480 -68.01277 9164 ft 252 kts
2026-04-25 21:55 -39.26804 -68.00618 8784 ft 250 kts
2026-04-25 21:56 -39.25143 -67.99963 8417 ft 249 kts
2026-04-25 21:56 -39.24047 -67.99533 8177 ft 248 kts
2026-04-25 21:56 -39.21841 -67.98670 7697 ft 247 kts
2026-04-25 21:56 -39.20196 -67.98030 7346 ft 247 kts
2026-04-25 21:57 -39.18550 -67.97387 7000 ft 246 kts
2026-04-25 21:57 -39.16915 -67.96741 6654 ft 245 kts
2026-04-25 21:57 -39.15304 -67.96106 6315 ft 245 kts
2026-04-25 21:57 -39.13677 -67.95482 5952 ft 244 kts
2026-04-25 21:58 -39.12060 -67.94836 5590 ft 243 kts 10°
2026-04-25 21:58 -39.10467 -67.94209 5232 ft 236 kts
2026-04-25 21:58 -39.08908 -67.93610 4881 ft 232 kts
2026-04-25 21:58 -39.07390 -67.93039 4659 ft 222 kts
2026-04-25 21:59 -39.05912 -67.92467 4444 ft 221 kts
2026-04-25 21:59 -39.04430 -67.92193 4236 ft 211 kts 352°
2026-04-25 21:59 -39.02971 -67.92225 4032 ft 209 kts 350°
2026-04-25 22:00 -39.00045 -67.92277 3660 ft 212 kts 355°
2026-04-25 22:00 -38.98614 -67.92217 3484 ft 204 kts 355°
2026-04-25 22:00 -38.97240 -67.92242 3348 ft 193 kts 349°
2026-04-25 22:00 -38.96003 -67.92754 3204 ft 183 kts 321°
2026-04-25 22:01 -38.95195 -67.93935 3060 ft 175 kts 292°
2026-04-25 22:01 -38.94918 -67.95409 2998 ft 167 kts 269°
2026-04-25 22:01 -38.94939 -67.96873 2995 ft 161 kts 267°
2026-04-25 22:01 -38.94940 -67.97821 2972 ft 159 kts 268°
2026-04-25 22:02 -38.94937 -67.99737 2896 ft 161 kts 268°
2026-04-25 22:02 -38.94936 -68.01171 2786 ft 164 kts 267°
2026-04-25 22:02 -38.94933 -68.02654 2610 ft 166 kts 267°
2026-04-25 22:02 -38.94925 -68.04095 2437 ft 152 kts 267°
2026-04-25 22:03 -38.94921 -68.05396 2256 ft 142 kts 266°
2026-04-25 22:03 -38.94923 -68.06646 2063 ft 142 kts 267°
2026-04-25 22:03 -38.94920 -68.07934 1869 ft 146 kts 268°
2026-04-25 22:03 -38.94915 -68.09249 1677 ft 148 kts 270°
2026-04-25 22:04 -38.94916 -68.10559 1480 ft 147 kts 269°
2026-04-25 22:04 -38.94913 -68.11871 1315 ft 146 kts 269°
2026-04-25 22:04 -38.94907 -68.13136 1089 ft 132 kts 269°
2026-04-25 22:04 -38.94903 -68.14242 900 ft 115 kts 269°
2026-04-25 22:05 -38.94901 -68.15138 887 ft 87 kts 270°
2026-04-25 22:05 -38.94899 -68.15828 892 ft 73 kts 270°
2026-04-25 22:05 -38.94897 -68.16281 891 ft 37 kts 269°
2026-04-25 22:05 -38.94883 -68.16541 892 ft 11 kts 267°
2026-04-25 22:06 -38.94897 -68.16518 892 ft 10 kts 88°
2026-04-25 22:06 -38.94900 -68.16373 892 ft 22 kts 93°
2026-04-25 22:06 -38.94902 -68.16148 892 ft 18 kts 89°
2026-04-25 22:06 -38.94898 -68.15967 894 ft 23 kts 91°
2026-04-25 22:07 -38.94899 -68.15732 892 ft 29 kts 90°
2026-04-25 22:07 -38.94900 -68.15545 891 ft 33 kts 91°
2026-04-25 22:07 -38.94901 -68.15175 887 ft 16 kts 91°
2026-04-25 22:07 -38.94949 -68.15069 887 ft 14 kts 134°
2026-04-25 22:08 -38.95029 -68.14966 887 ft 19 kts 138°
2026-04-25 22:08 -38.95091 -68.14841 888 ft 18 kts 89°
2026-04-25 22:08 -38.95091 -68.14723 887 ft 11 kts 91°
2026-04-25 22:08 -38.95092 -68.14594 887 ft 18 kts 91°
2026-04-25 22:09 -38.95093 -68.14407 886 ft 24 kts 90°
2026-04-25 22:09 -38.95094 -68.14217 886 ft 14 kts 87°
2026-04-25 22:09 -38.95093 -68.14130 886 ft 8 kts 92°
2026-04-25 22:09 -38.95094 -68.14042 885 ft 8 kts 91°
2026-04-25 22:10 -38.95113 -68.14033 885 ft 5 kts 219°
2026-04-25 22:10 -38.95144 -68.14067 885 ft 0 kts 222°
2026-04-25 22:10 -38.95145 -68.14069 885 ft 0 kts 240°
2026-04-25 22:11 -38.95145 -68.14068 885 ft 0 kts 240°
2026-04-25 22:11 -38.95145 -68.14069 885 ft 0 kts 241°